sat.trackr.live / text

‹ back to catalog

STARLINK-5761

NORAD 55599 · 2023-020AG

PAYLOAD ACTIVE UNKNOWN

§ Identity

Operator
Country
US
Launch date
2023-02-12
Launch site
AFETR
Launch vehicle
Mass (kg)
RCS (m²)

Purposes: comms

External: N2YO · Heavens-Above · Gunter

§ Orbital elements

Epoch: 2026-05-25T02:30:50.461344Z

Period
94.27 min
Inclination
43.0055°
Eccentricity
0.0001917
Mean motion
15.27570774 rev/d
Perigee alt
481.8 km
Apogee alt
484.4 km
Semi-major
6,861.2 km
B*
-2.0157e-5
RAAN
282.8651°
Arg perigee
273.8405°
Mean anomaly
86.2227°
Rev number
18,072

§ Raw data

STARLINK-57611 55599U 23020AG  26145.10475071 -.00000817  00000+0 -20157-4 0  99992 55599  43.0055 282.8651 0001917 273.8405  86.2227 15.27570774180721

JSON: /api/v1/satellites/55599 · /tle

For live sub-satellite position, see the globe view (requires WebGL).

§ Visibility from observer

Set your observer location to see the next 7 days of passes ≥ 10°. The values pass through the URL so the page stays shareable.

No JS? Fill the form by hand. The geolocation button needs JavaScript.